OBJECT E, 56747

Orbit data source: Space-Track

You're viewing an Uncataloged Satellite

Recently launched and/or uncataloged satellites may have evolving metadata. Metadata may include but not limited to: Owner, Maufacturer, Bus, Motor, and Mission.

OBJECT E, 56747 is a satellite owned by KairoSpace (KR) in SSO that was launched on Thu, 25 May 2023 UTC via an NURI launch vehicle from the Naro Space Center, South Korea (NSC). Unknown objects in Earth's orbit typically refer to objects detected orbiting the Earth but have not yet been identified or cataloged. These objects could be anything from previously untracked satellites, spent rocket stages, debris from satellite collisions, or even natural meteoroids temporarily captured by Earth's gravity.

Loading next visibility...
Identifier
56747, 2023-072E
Orbit
SSO
Last TLE update
4 hours ago
Origin
Flag of KRKAIRSP (KR / SKOR)
Manufacturer
KairoSpace
Mission
Operational Commercial Technology
Bus & Motor
CUBESAT 3U, Unknown motor
Mass
6 kg wet, 6 kg dry
Launch date (UTC)
2023-05-25 (2 years ago)
Launch vehicle
NURI
Launch site
Naro Space Center, South Korea (NSC)
Object type
Unknown
Shape & HBR
Box, 0.3 m
Radar Cross Section
0.035 m², Small (<0.1 m²)

Expand to show TLE details & history

TLE from 4 hours ago
0 OBJECT E
1 56747U 23072E   25127.52083351  .00016123  00000-0  55955-3 0  9992
2 56747  97.5390 321.6814 0005305  13.4007 346.7373 15.29856216108037
Epoch: 2025-05-07T12:30Z
Definitive object data (Epoch: 2025-05-07T12:30:00.015Z)
Latitude
-0.00001°
Longitude
-91.42316°
Altitude
475.802 km
Speed
7.63 km/s
True Right ascension
21h 26m 43s
True Declination
0° 00' 00"
Sunlit
Object was in daylight at TLE epoch
Visualization TLE readout
Latitude
-80.40206°
Longitude
-40.1314°
Altitude
504.793 km
Speed
7.61 km/s
Apparent Right ascension
12h 53m 39s
Apparent Declination
-70° 55' 18"
Sunlit
Object is in daylight
Visualization observer readout
Local Sidereal Time
00:53:14
Azimuth
180.066° SSW
Elevation
-58.994°
Doppler factor
1
Orbital elements
Apogee altitude
476.835 km
Perigee altitude
469.566 km
Semi-major axis
6,851.337 km
Eccentricity
0.0005305
Inclination
97.539°
RAAN
321.6814°
Arg. of periapsis
13.4007°
True anomaly
346.72334°
Mean anomaly
346.7373°
Eccentric anomaly
346.73032°
Mean motion
3.82719 °/min
BSTAR
0.00055955
Orbital period
94.06 mins
Loading maneuver chart data...
Loading SW <> Apogee altitude chart data...
Loading historical data...
Loading historical data...
Loading historical data...
Loading historical data...
Loading historical data...
Loading historical data...
Loading historical data...

OBJECT E Visibility forecast

Observer location: undefined°, undefined°

Span
Click to sort rows by Start time (UTC) header in descending order
Start Az.
Max El. time (UTC)
Max El. Az.
Max El.
End time (UTC)
End Az.
5 mins2025-05-08 01:37:34.750Z21.749° NNE2025-05-08 01:40:34.750Z145.729° SSE39.55°2025-05-08 01:42:34.750Z180.22° SSW
4 mins2025-05-08 12:12:34.750Z101.817° ESE2025-05-08 12:13:34.750Z79.33° E19.826°2025-05-08 12:16:34.750Z19.668° NNE
4 mins2025-05-08 13:45:34.750Z231.422° WSW2025-05-08 13:47:34.750Z276.121° WNW18.26°2025-05-08 13:49:34.750Z311.824° NW
|